This demonstration page uses our WeatherBlox Daily Observations layout. Learn more.

Left ArrowRight Arrow

Hourly Observations for May 5, 2016

Temp ( °F °C ) Dew Point ( °F °C ) Humidity (%) Winds ( mph kmh ) Pressure ( in mb ) Visibility ( mi km ) Precip ( " mm )
12:54 am 00:54 Clear 46 7.8 39 3.9 77 77 N 3 6 30.05 1018 10 16 0.00 0.00
1:54 am 01:54 Clear 45 7.2 39 3.9 80 80 Calm 30.05 1018 10 16 0.00 0.00
2:54 am 02:54 Clear 44 6.7 39 3.9 83 83 N 3 6 30.04 1017 10 16 0.00 0.00
3:54 am 03:54 Clear 45 7.2 39 3.9 80 80 N 3 6 30.05 1018 10 16 0.00 0.00
4:54 am 04:54 Clear 46 7.8 40 4.4 79 79 Calm 30.05 1018 10 16 0.00 0.00
5:54 am 05:54 Clear 40 4.4 36 2.2 86 86 N 5 7 30.07 1018 10 16 0.00 0.00
6:54 am 06:54 Sunny 43 6.1 39 3.9 86 86 Calm 30.08 1019 10 16 0.00 0.00
7:54 am 07:54 Sunny 49 9.4 41 5 74 74 Calm 30.09 1019 10 16 0.00 0.00
8:54 am 08:54 Sunny 56 13.3 41 5 57 57 Calm 30.11 1020 10 16 0.00 0.00
9:54 am 09:54 Sunny 65 18.3 42 5.6 43 43 Calm 30.10 1019 10 16 0.00 0.00
10:54 am 10:54 Sunny 69 20.6 39 3.9 33 33 Calm 30.10 1019 10 16 0.00 0.00
11:54 am 11:54 Sunny 72 22.2 37 2.8 28 28 VRB 3 6 30.10 1019 10 16 0.00 0.00
12:54 pm 12:54 Sunny 74 23.3 36 2.2 25 25 Calm 30.07 1018 10 16 0.00 0.00
1:54 pm 13:54 Sunny 75 23.9 38 3.3 26 26 VRB 5 7 30.06 1018 10 16 0.00 0.00
2:54 pm 14:54 Sunny 78 25.6 37 2.8 23 23 NW 5 7 30.05 1018 10 16 0.00 0.00
3:54 pm 15:54 Sunny 79 26.1 39 3.9 24 24 ESE 6 9 30.02 1017 10 16 0.00 0.00
4:54 pm 16:54 Sunny 80 26.7 38 3.3 22 22 SSE 8 13 30.01 1016 10 16 0.00 0.00
5:54 pm 17:54 Sunny 79 26.1 38 3.3 23 23 VRB 5 7 30.00 1016 10 16 0.00 0.00
6:54 pm 18:54 Sunny 78 25.6 41 5 27 27 SSE 7 11 29.98 1015 10 16 0.00 0.00
7:54 pm 19:54 Sunny 75 23.9 41 5 29 29 SE 7 11 29.98 1015 10 16 0.00 0.00
8:54 pm 20:54 Clear 66 18.9 44 6.7 45 45 SSE 6 9 29.98 1015 10 16 0.00 0.00
9:54 pm 21:54 Clear 62 16.7 43 6.1 50 50 S 7 11 30.00 1016 10 16 0.00 0.00
10:54 pm 22:54 Clear 60 15.6 44 6.7 56 56 SSE 6 9 30.01 1016 10 16 0.00 0.00
11:54 pm 23:54 Clear 59 15 43 6.1 56 56 S 5 7 30.01 1016 10 16 0.00 0.00

Powered by AerisWeather